Location: Bremen
(53.0793°N, 8.8017°E)
Time: 19:08:55
(UTC+01:00)

Vanguard 1 Rocket - Pass Details

Date: 12 December 2021
Orbit: 651 x 4224 km, 34.3° (Epoch: 23 January)

Event Time Altitude Azimuth Distance (km) Brightness Sun altitude
Rises 04:53:32 0° 256° (WSW) 4,784 - -30.9°
Reaches altitude 10° 04:56:42 10° 245° (WSW) 4,205 - -30.4°
Exits shadow 05:01:50 25° 220° (SW) 3,766 10.1 -29.7°
Maximum altitude 05:06:35 30° 191° (S) 3,981 10.5 -28.9°
Drops below altitude 10° 05:22:25 10° 141° (SE) 6,778 12.3 -26.6°
Sets 05:29:34 0° 133° (SE) 8,193 13.0 -25.5°
